When you browse on this site, cookies collect data to enhance your experience and personalize the content and advertising you see.
Visit our Privacy Policy to learn more. By continuing to use the site, you agree to this use of cookies and data.
  • In Latvia
  • List of Countries
  • For 7 days
  • Water Temperature
  • Weather Map
  • Weather Widgets
  • user-avatar
    Login

    Hourly Weather Kostikov

    Today, 24 August, Saturday

    Time Temperature Precipitation Wind Pressure Humidity
    00:00 +28°C° 0 mm 4 mps 751 mmHg 47%
    01:00 +28°C° 0 mm 5 mps 751 mmHg 48%
    02:00 +27°C° 0 mm 5 mps 752 mmHg 49%
    03:00 +27°C° 0 mm 5 mps 752 mmHg 52%
    04:00 +26°C° 0 mm 5 mps 752 mmHg 54%
    05:00 +26°C° 0 mm 5 mps 752 mmHg 56%
    06:00 +25°C° 0 mm 5 mps 752 mmHg 58%
    07:00 +27°C° 0 mm 6 mps 752 mmHg 52%
    08:00 +29°C° 0 mm 6 mps 753 mmHg 47%
    09:00 +32°C° 0 mm 6 mps 753 mmHg 41%
    10:00 +33°C° 0 mm 6 mps 753 mmHg 38%
    11:00 +35°C° 0 mm 6 mps 753 mmHg 34%
    12:00 +38°C° 0 mm 6 mps 752 mmHg 30%
    13:00 +38°C° 0 mm 6 mps 752 mmHg 29%
    14:00 +38°C° 0 mm 6 mps 752 mmHg 29%
    15:00 +39°C° 0 mm 6 mps 752 mmHg 30%
    16:00 +38°C° 0 mm 6 mps 752 mmHg 31%
    17:00 +36°C° 0 mm 6 mps 752 mmHg 33%
    18:00 +35°C° 0 mm 6 mps 752 mmHg 34%
    19:00 +34°C° 0 mm 6 mps 752 mmHg 37%
    20:00 +32°C° 0 mm 6 mps 752 mmHg 40%
    21:00 +29°C° 0 mm 6 mps 752 mmHg 42%
    22:00 +29°C° 0.1 mm 6 mps 752 mmHg 45%
    23:00 +28°C° 0.1 mm 5 mps 752 mmHg 48%

    Tomorrow, 25 August, Sunday

    Time Temperature Precipitation Wind Pressure Humidity
    00:00 +27°C° 0.1 mm 5 mps 752 mmHg 50%
    01:00 +26°C° 0 mm 5 mps 752 mmHg 54%
    02:00 +25°C° 0 mm 5 mps 752 mmHg 57%
    03:00 +25°C° 0 mm 4 mps 752 mmHg 60%
    04:00 +23°C° 0 mm 5 mps 752 mmHg 61%
    05:00 +23°C° 0 mm 5 mps 752 mmHg 63%
    06:00 +23°C° 0 mm 5 mps 752 mmHg 64%
    07:00 +25°C° 0 mm 5 mps 753 mmHg 60%
    08:00 +26°C° 0 mm 5 mps 753 mmHg 55%
    09:00 +28°C° 0 mm 5 mps 753 mmHg 51%
    10:00 +30°C° 0 mm 6 mps 753 mmHg 46%
    11:00 +32°C° 0 mm 6 mps 753 mmHg 41%
    12:00 +34°C° 0 mm 6 mps 753 mmHg 36%
    13:00 +34°C° 0 mm 6 mps 753 mmHg 35%
    14:00 +35°C° 0 mm 6 mps 753 mmHg 34%
    15:00 +35°C° 0 mm 6 mps 753 mmHg 32%
    16:00 +35°C° 0 mm 6 mps 753 mmHg 34%
    17:00 +34°C° 0 mm 6 mps 753 mmHg 36%
    18:00 +33°C° 0 mm 6 mps 752 mmHg 38%
    19:00 +30°C° 0 mm 6 mps 753 mmHg 40%
    20:00 +29°C° 0 mm 6 mps 753 mmHg 43%
    21:00 +28°C° 0 mm 6 mps 754 mmHg 46%
    22:00 +27°C° 0 mm 6 mps 754 mmHg 43%
    23:00 +26°C° 0 mm 6 mps 754 mmHg 41%

    Day after tomorrow, 26 August, Monday

    Time Temperature Precipitation Wind Pressure Humidity
    00:00 +24°C° 0 mm 6 mps 754 mmHg 39%
    01:00 +23°C° 0 mm 6 mps 755 mmHg 41%
    02:00 +23°C° 0 mm 5 mps 755 mmHg 42%
    03:00 +22°C° 0 mm 5 mps 755 mmHg 44%
    04:00 +22°C° 0 mm 5 mps 755 mmHg 50%
    05:00 +21°C° 0 mm 5 mps 755 mmHg 56%
    06:00 +20°C° 0 mm 5 mps 755 mmHg 62%
    07:00 +22°C° 0 mm 6 mps 756 mmHg 57%
    08:00 +23°C° 0 mm 6 mps 756 mmHg 53%
    09:00 +24°C° 0 mm 6 mps 756 mmHg 48%
    10:00 +27°C° 0 mm 6 mps 756 mmHg 44%
    11:00 +28°C° 0 mm 5 mps 756 mmHg 40%
    12:00 +30°C° 0 mm 5 mps 756 mmHg 36%
    13:00 +30°C° 0 mm 5 mps 756 mmHg 34%
    14:00 +32°C° 0 mm 5 mps 756 mmHg 32%
    15:00 +32°C° 0 mm 5 mps 756 mmHg 30%
    16:00 +32°C° 0 mm 5 mps 755 mmHg 31%
    17:00 +30°C° 0 mm 5 mps 755 mmHg 32%
    18:00 +29°C° 0 mm 5 mps 755 mmHg 33%
    19:00 +27°C° 0 mm 5 mps 755 mmHg 35%
    20:00 +26°C° 0 mm 4 mps 755 mmHg 37%
    21:00 +23°C° 0 mm 4 mps 756 mmHg 39%
    22:00 +22°C° 0 mm 4 mps 755 mmHg 38%
    23:00 +22°C° 0 mm 4 mps 755 mmHg 37%

    27 August, Tuesday

    Time Temperature Precipitation Wind Pressure Humidity
    00:00 +21°C° 0 mm 4 mps 755 mmHg 36%
    01:00 +20°C° 0 mm 4 mps 755 mmHg 38%
    02:00 +20°C° 0 mm 4 mps 755 mmHg 41%
    03:00 +19°C° 0 mm 4 mps 755 mmHg 43%
    04:00 +19°C° 0 mm 4 mps 755 mmHg 45%
    05:00 +18°C° 0 mm 3 mps 754 mmHg 48%
    06:00 +18°C° 0 mm 3 mps 754 mmHg 50%
    07:00 +20°C° 0 mm 3 mps 754 mmHg 45%
    08:00 +22°C° 0 mm 3 mps 754 mmHg 39%
    09:00 +26°C° 0 mm 4 mps 754 mmHg 34%
    10:00 +27°C° 0 mm 3 mps 754 mmHg 32%
    11:00 +28°C° 0 mm 3 mps 754 mmHg 29%
    12:00 +30°C° 0 mm 2 mps 753 mmHg 26%
    13:00 +30°C° 0 mm 2 mps 753 mmHg 25%
    14:00 +31°C° 0 mm 2 mps 753 mmHg 23%
    15:00 +31°C° 0 mm 2 mps 752 mmHg 21%
    16:00 +30°C° 0 mm 3 mps 752 mmHg 22%
    17:00 +30°C° 0 mm 4 mps 752 mmHg 22%
    18:00 +29°C° 0 mm 4 mps 751 mmHg 23%
    19:00 +27°C° 0 mm 4 mps 751 mmHg 26%
    20:00 +25°C° 0 mm 4 mps 751 mmHg 30%
    21:00 +22°C° 0 mm 4 mps 752 mmHg 33%
    22:00 +21°C° 0 mm 4 mps 751 mmHg 36%
    23:00 +20°C° 0 mm 3 mps 751 mmHg 39%

    28 August, Wednesday

    Time Temperature Precipitation Wind Pressure Humidity
    00:00 +20°C° 0 mm 3 mps 751 mmHg 42%
    01:00 +19°C° 0 mm 3 mps 751 mmHg 45%
    02:00 +18°C° 0 mm 3 mps 751 mmHg 48%
    03:00 +18°C° 0 mm 3 mps 751 mmHg 50%
    04:00 +18°C° 0 mm 3 mps 751 mmHg 54%
    05:00 +17°C° 0 mm 3 mps 751 mmHg 57%
    06:00 +17°C° 0 mm 3 mps 751 mmHg 61%
    07:00 +19°C° 0 mm 4 mps 751 mmHg 59%
    08:00 +21°C° 0 mm 5 mps 752 mmHg 57%
    09:00 +22°C° 0 mm 5 mps 752 mmHg 55%
    10:00 +23°C° 0 mm 5 mps 752 mmHg 48%
    11:00 +24°C° 0 mm 6 mps 752 mmHg 41%
    12:00 +26°C° 0 mm 6 mps 752 mmHg 34%
    13:00 +26°C° 0 mm 6 mps 752 mmHg 33%
    14:00 +27°C° 0 mm 6 mps 752 mmHg 32%
    15:00 +27°C° 0 mm 6 mps 751 mmHg 31%
    16:00 +26°C° 0 mm 6 mps 752 mmHg 30%
    17:00 +24°C° 0 mm 6 mps 752 mmHg 30%
    18:00 +23°C° 0 mm 5 mps 752 mmHg 30%
    19:00 +21°C° 0 mm 5 mps 752 mmHg 33%
    20:00 +19°C° 0 mm 4 mps 752 mmHg 36%
    21:00 +18°C° 0 mm 4 mps 753 mmHg 40%
    22:00 +17°C° 0 mm 4 mps 753 mmHg 41%
    23:00 +15°C° 0 mm 4 mps 753 mmHg 41%

    29 August, Thursday

    Time Temperature Precipitation Wind Pressure Humidity
    00:00 +13°C° 0 mm 4 mps 754 mmHg 42%
    01:00 +13°C° 0 mm 4 mps 754 mmHg 46%
    02:00 +12°C° 0 mm 3 mps 754 mmHg 49%
    03:00 +11°C° 0 mm 3 mps 754 mmHg 53%
    04:00 +10°C° 0 mm 3 mps 754 mmHg 55%
    05:00 +10°C° 0 mm 3 mps 754 mmHg 57%
    06:00 +9°C° 0 mm 3 mps 755 mmHg 59%
    07:00 +11°C° 0 mm 4 mps 755 mmHg 54%
    08:00 +12°C° 0 mm 4 mps 755 mmHg 49%
    09:00 +14°C° 0 mm 5 mps 755 mmHg 44%
    10:00 +15°C° 0 mm 5 mps 755 mmHg 40%
    11:00 +16°C° 0 mm 5 mps 755 mmHg 35%
    12:00 +17°C° 0 mm 5 mps 755 mmHg 31%
    13:00 +19°C° 0 mm 5 mps 755 mmHg 30%
    14:00 +20°C° 0 mm 5 mps 755 mmHg 29%
    15:00 +21°C° 0 mm 5 mps 754 mmHg 28%
    16:00 +20°C° 0 mm 5 mps 754 mmHg 29%
    17:00 +20°C° 0 mm 5 mps 754 mmHg 29%
    18:00 +19°C° 0 mm 5 mps 754 mmHg 30%
    19:00 +18°C° 0 mm 4 mps 754 mmHg 35%
    20:00 +15°C° 0 mm 4 mps 755 mmHg 40%
    21:00 +14°C° 0 mm 4 mps 755 mmHg 45%
    22:00 +13°C° 0 mm 4 mps 755 mmHg 48%
    23:00 +12°C° 0 mm 4 mps 755 mmHg 51%
    Show more